sat.trackr.live / text

‹ back to catalog

STARLINK-30867

NORAD 58231 · 2023-171B

PAYLOAD ACTIVE UNKNOWN

§ Identity

Operator
Country
US
Launch date
2023-11-08
Launch site
AFETR
Launch vehicle
Mass (kg)
RCS (m²)

Purposes: comms

External: N2YO · Heavens-Above · Gunter

§ Orbital elements

Epoch: 2026-09-20T07:34:04.434240Z

Period
94.27 min
Inclination
43.0089°
Eccentricity
0.0002557
Mean motion
15.27569125 rev/d
Perigee alt
481.3 km
Apogee alt
484.8 km
Semi-major
6,861.2 km
B*
-5.1473e-5
RAAN
265.7870°
Arg perigee
285.1436°
Mean anomaly
74.9133°
Rev number
15,950

§ Raw data

STARLINK-308671 58231U 23171B   26263.31532910 -.00001678  00000+0 -51473-4 0  99932 58231  43.0089 265.7870 0002557 285.1436  74.9133 15.27569125159508

JSON: /api/v1/satellites/58231 · /tle

For live sub-satellite position, see the globe view (requires WebGL).

§ Visibility from observer

Set your observer location to see the next 7 days of passes ≥ 10°. The values pass through the URL so the page stays shareable.

No JS? Fill the form by hand. The geolocation button needs JavaScript.